428  
ASUS45 KCYS 251410  
RWRWY  
 
WYOMING REGIONAL WEATHER ROUNDUP  
NATIONAL WEATHER SERVICE CHEYENNE WY  
800 AM MDT MON OCT 25 2021  
 
NOTE: "FAIR" INDICATES FEW OR NO CLOUDS BELOW 12,000 FEET  
WITH NO SIGNIFICANT WEATHER AND/OR S TO VISIBILITY
.  
 
WYZ001-251500-  
YELLOWSTONE NATIONAL PARK  
 
CITY SKY/WX TMP DP RH WIND PRES REMARKS
 
LK YELLOWSTONE NOT AVBL  
W YELLOWSTONE NOT AVBL  
 

 
WYZ002>013-054>058-071-098>099-251500-  
NORTHERN WYOMING  
 
CITY SKY/WX TMP DP RH WIND PRES REMARKS
 
JACKSON CLOUDY 44 39 82 SW10 29.74F  
CODY FAIR 40 32 73 CALM 29.62F  
GREYBULL FAIR 53 38 56 SE7 29.60F  
WORLAND FAIR 52 37 56 S13 29.60F  
SHERIDAN FAIR 40 34 79 NE5 29.59F  
BUFFALO FAIR 49 32 52 E5 29.63F  
GILLETTE FAIR 48 35 60 S18G29 29.69S  
HULETT FAIR 55 32 41 S15G23 29.71F  
NEWCASTLE FAIR 46 30 53 SE18G26 29.81F  
 

 
WYZ014>020-022>026-101>103-251500-  
CENTRAL WYOMING  
 
CITY SKY/WX TMP DP RH WIND PRES REMARKS
 
BIG PINEY FAIR 34 33 96 E6 29.85F WCI 29  
PINEDALE FAIR 43 34 70 SE8 29.86F  
DUBOIS PTSUNNY 45 32 61 SW3 29.73S  
LANDER FAIR 44 34 67 E9 29.67F  
RIVERTON FAIR 42 37 82 CALM 29.68F  
CASPER FAIR 55 33 43 SW22G33 29.76R  
DOUGLAS FAIR 43 30 60 SE12 29.82F  
 

 
WYZ021-027>030-104>119-251500-  
SOUTHERN WYOMING  
 
CITY SKY/WX TMP DP RH WIND PRES REMARKS
 
EVANSTON CLOUDY 52 35 52 SW21G36 29.80R  
KEMMERER FAIR 36 32 87 CALM 29.84S  
ROCK SPRINGS FAIR 48 31 51 S17 29.86S  
DIXON FAIR 55 30 38 S29G44 29.97R  
RAWLINS FAIR 51 30 44 SW24G44 29.86F  
SARATOGA FAIR 50 32 50 S8 29.92F  
LARAMIE FAIR 50 29 44 SW14 29.93S  
CHEYENNE FAIR 35 28 75 S3 29.93F  
TORRINGTON FAIR 39 34 82 E10 29.87F WCI 32  
PINE BLUFFS FAIR 36 28 75 CALM 29.94F  
 

 
 
 
CLICK HERE TO GO TO PREVIOUS BULLETINS.

The Nexlab WY Page Main Text Page